Buckeye, AZ

6:32 AM MST on December 15, 2019 (GMT -0700)
Buckeye Municipal

Weather History for KBXK - July, 2019

Change the Weather History Date:

Monday, July 22, 2019

  Actual Average (KGYR) Record (KGYR)
Temperature  
Mean Temperature 92 °F -  
Max Temperature 105 °F 103 °F 113 °F (2006)
Min Temperature 78 °F 79 °F 64 °F (1999)
Cooling Degree Days 26    
Growing Degree Days 42 (Base 50)    
Moisture  
Dew Point 61 °F    
Average Humidity 34    
Maximum Humidity 70    
Minimum Humidity 18    
Precipitation  
Precipitation 0.24 in - - ()
Sea Level Pressure  
Sea Level Pressure 29.92 in    
Wind  
Wind Speed 7 mph (SW)    
Max Wind Speed 31 mph    
Max Gust Speed 45 mph    
Visibility 9 miles    
Events      
Averages and records for this station are not official NWS values.
T = Trace of Precipitation, MM = Missing Value Source: NWS Daily Summary

Daily Weather History Graph

Daily Weather History Graph

Search for Another Location

Airport or City:

Astronomy

Jul. 22, 2019 Rise Set
Actual Time 5:36 AM MST 7:37 PM MST
Civil Twilight 5:08 AM MST 8:05 PM MST
Nautical Twilight 4:34 AM MST 8:39 PM MST
Astronomical Twilight 3:58 AM MST 9:15 PM MST
Moon 11:15 PM MST (7/22) 10:42 AM MST (7/22)
Length of Visible Light 14h 56m
Length of Day
14h 01m
Waning Gibbous, 71% of the Moon is Illuminated
Jul 22
Waning Gibbous
Jul 24
Last Quarter
Jul 31
New
Aug 7
First Quarter
Aug 15
Full

Hourly Weather History & Observations

Time (MST) Temp. Heat Index Dew Point Humidity Pressure Visibility Wind Dir Wind Speed Gust Speed Precip Events Conditions
12:15 AM 91.4 °F 92.1 °F 62.6 °F 38% 29.86 in 10.0 mi Calm Calm - N/A   Overcast
12:35 AM 93.2 °F 94.1 °F 62.6 °F 36% 29.85 in 7.0 mi WSW 3.5 mph - N/A   Unknown
12:55 AM 93.2 °F 94.1 °F 62.6 °F 36% 29.85 in 10.0 mi WSW 5.8 mph - N/A   Overcast
1:15 AM 93.2 °F 94.1 °F 62.6 °F 36% 29.86 in 9.0 mi SSW 8.1 mph - N/A   Mostly Cloudy
1:35 AM 93.2 °F 94.1 °F 62.6 °F 36% 29.86 in 10.0 mi SW 9.2 mph - N/A   Overcast
1:55 AM 93.2 °F 94.1 °F 62.6 °F 36% 29.84 in 10.0 mi SW 8.1 mph - N/A   Overcast
2:15 AM 93.2 °F 94.1 °F 62.6 °F 36% 29.85 in 10.0 mi SW 5.8 mph - N/A   Overcast
2:35 AM 91.4 °F 92.1 °F 62.6 °F 38% 29.85 in 10.0 mi SW 4.6 mph - N/A   Overcast
2:55 AM 89.6 °F 90.1 °F 62.6 °F 40% 29.86 in 10.0 mi SW 5.8 mph - N/A   Overcast
3:15 AM 91.4 °F 92.1 °F 62.6 °F 38% 29.87 in 10.0 mi SW 10.4 mph 16.1 mph N/A   Overcast
3:35 AM 91.4 °F 92.1 °F 62.6 °F 38% 29.88 in 10.0 mi SW 11.5 mph - N/A   Unknown
3:55 AM 89.6 °F 91.1 °F 64.4 °F 43% 29.89 in 10.0 mi SSW 5.8 mph - N/A   Unknown
4:15 AM 87.8 °F 89.4 °F 64.4 °F 46% 29.90 in 10.0 mi SSW 10.4 mph - N/A   Overcast
4:35 AM 87.8 °F 89.4 °F 64.4 °F 46% 29.91 in 10.0 mi SSW 6.9 mph - N/A   Overcast
4:55 AM 87.8 °F 89.4 °F 64.4 °F 46% 29.91 in 10.0 mi Calm Calm - N/A   Overcast
5:15 AM 87.8 °F 87.6 °F 60.8 °F 40% 29.92 in 10.0 mi WSW 9.2 mph - N/A   Overcast
5:35 AM 87.8 °F 87.6 °F 60.8 °F 40% 29.93 in 10.0 mi WSW 9.2 mph - N/A   Mostly Cloudy
5:55 AM 87.8 °F 87.6 °F 60.8 °F 40% 29.94 in 10.0 mi WSW 8.1 mph - N/A   Partly Cloudy
6:15 AM 87.8 °F 88.5 °F 62.6 °F 43% 29.94 in 9.0 mi SW 4.6 mph - N/A   Clear
6:35 AM 87.8 °F 88.5 °F 62.6 °F 43% 29.95 in 9.0 mi WSW 6.9 mph - N/A   Clear
6:55 AM 87.8 °F 88.5 °F 62.6 °F 43% 29.96 in 9.0 mi WSW 4.6 mph - N/A   Clear
7:15 AM 87.8 °F 88.5 °F 62.6 °F 43% 29.96 in 8.0 mi West 5.8 mph - N/A   Clear
7:35 AM 87.8 °F 88.5 °F 62.6 °F 43% 29.97 in 10.0 mi West 6.9 mph - N/A   Clear
7:55 AM 89.6 °F 90.1 °F 62.6 °F 40% 29.97 in 9.0 mi WSW 6.9 mph - N/A   Clear
8:15 AM 89.6 °F 90.1 °F 62.6 °F 40% 29.98 in 10.0 mi WSW 6.9 mph - N/A   Clear
8:35 AM 93.2 °F 94.1 °F 62.6 °F 36% 29.98 in 10.0 mi West 6.9 mph - N/A   Clear
8:55 AM 91.4 °F 92.1 °F 62.6 °F 38% 29.99 in 10.0 mi WSW 4.6 mph - N/A   Clear
9:15 AM 93.2 °F 93.3 °F 60.8 °F 34% 29.98 in 10.0 mi West 5.8 mph - N/A   Clear
9:35 AM 93.2 °F 93.3 °F 60.8 °F 34% 29.98 in 10.0 mi West 4.6 mph - N/A   Clear
9:55 AM 95.0 °F 96.0 °F 62.6 °F 34% 29.98 in 10.0 mi West 5.8 mph - N/A   Clear
10:15 AM 96.8 °F 97.1 °F 60.8 °F 30% 29.98 in 10.0 mi WSW 8.1 mph - N/A   Clear
10:35 AM 96.8 °F 97.1 °F 60.8 °F 30% 29.98 in 9.0 mi Variable 5.8 mph 12.7 mph N/A   Clear
10:55 AM 96.8 °F 98.0 °F 62.6 °F 32% 29.98 in 9.0 mi South 4.6 mph - N/A   Clear
11:15 AM 96.8 °F 97.1 °F 60.8 °F 30% 29.97 in 10.0 mi Variable 6.9 mph - N/A   Clear
11:35 AM 96.8 °F 97.1 °F 60.8 °F 30% 29.97 in 10.0 mi Variable 4.6 mph - N/A   Clear
11:55 AM 96.8 °F 97.1 °F 60.8 °F 30% 29.96 in 10.0 mi Calm Calm - N/A   Clear
12:15 PM 96.8 °F 98.0 °F 62.6 °F 32% 29.96 in 9.0 mi SSE 5.8 mph - N/A   Clear
12:35 PM 98.6 °F 100.0 °F 62.6 °F 30% 29.96 in 9.0 mi SSE 9.2 mph - N/A   Clear
12:55 PM 98.6 °F 100.0 °F 62.6 °F 30% 29.95 in 10.0 mi South 6.9 mph - N/A   Clear
1:15 PM 100.4 °F 101.3 °F 60.8 °F 27% 29.95 in 10.0 mi Variable 5.8 mph - N/A   Clear
1:35 PM 100.4 °F 101.3 °F 60.8 °F 27% 29.94 in 10.0 mi SSW 10.4 mph - N/A   Clear
1:55 PM 102.2 °F 102.4 °F 59.0 °F 24% 29.93 in 10.0 mi SW 9.2 mph - N/A   Clear
2:15 PM 104.0 °F 104.6 °F 59.0 °F 23% 29.92 in 10.0 mi Variable 4.6 mph 11.5 mph N/A   Clear
2:35 PM 102.2 °F 103.6 °F 60.8 °F 26% 29.91 in 10.0 mi SSW 9.2 mph - N/A   Clear
2:55 PM 102.2 °F 103.6 °F 60.8 °F 26% 29.90 in 9.0 mi Variable 3.5 mph - N/A   Clear
3:15 PM 102.2 °F 103.6 °F 60.8 °F 26% 29.89 in 10.0 mi SW 9.2 mph - N/A   Clear
3:35 PM 102.2 °F 102.4 °F 59.0 °F 24% 29.87 in 10.0 mi West 11.5 mph - N/A   Clear
3:55 PM 104.0 °F 103.4 °F 57.2 °F 21% 29.86 in 9.0 mi WSW 8.1 mph - N/A   Clear
4:15 PM 104.0 °F 103.4 °F 57.2 °F 21% 29.85 in 10.0 mi West 8.1 mph 17.3 mph N/A   Clear
4:35 PM 105.8 °F 104.9 °F 55.4 °F 19% 29.84 in 10.0 mi West 11.5 mph 19.6 mph N/A   Clear
4:55 PM 105.8 °F 104.3 °F 53.6 °F 18% 29.83 in 10.0 mi WNW 10.4 mph - N/A   Clear
5:15 PM 105.8 °F 104.3 °F 53.6 °F 18% 29.83 in 10.0 mi WNW 11.5 mph - N/A   Clear
5:35 PM 105.8 °F 104.9 °F 55.4 °F 19% 29.83 in 10.0 mi WNW 12.7 mph - N/A   Clear
5:55 PM 105.8 °F 104.3 °F 53.6 °F 18% 29.83 in 10.0 mi West 10.4 mph 16.1 mph N/A   Clear
6:15 PM 105.8 °F 104.3 °F 53.6 °F 18% 29.84 in 10.0 mi WNW 10.4 mph - N/A   Clear
6:35 PM 104.0 °F 102.9 °F 55.4 °F 20% 29.84 in 10.0 mi West 4.6 mph - N/A   Clear
6:55 PM 104.0 °F 102.9 °F 55.4 °F 20% 29.84 in 10.0 mi West 5.8 mph - N/A   Clear
7:15 PM 104.0 °F 102.9 °F 55.4 °F 20% 29.84 in 10.0 mi West 6.9 mph - N/A   Partly Cloudy
7:35 PM 102.2 °F 101.4 °F 57.2 °F 22% 29.85 in 10.0 mi Calm Calm - N/A   Scattered Clouds
7:55 PM 98.6 °F 98.5 °F 59.0 °F 27% 29.86 in 7.0 mi SSW 4.6 mph - N/A   Mostly Cloudy
8:15 PM 96.8 °F 97.1 °F 60.8 °F 30% 29.87 in 4.0 mi South 4.6 mph - N/A   Haze
8:35 PM 96.8 °F 98.0 °F 62.6 °F 32% 29.88 in 4.0 mi SSE 4.6 mph - N/A   Haze
8:55 PM 96.8 °F 98.0 °F 62.6 °F 32% 29.89 in 7.0 mi SSE 3.5 mph - N/A   Overcast
9:15 PM 96.8 °F 97.1 °F 60.8 °F 30% 29.91 in 8.0 mi SSW 9.2 mph - N/A   Mostly Cloudy
9:35 PM 95.0 °F 96.0 °F 62.6 °F 34% 29.93 in 10.0 mi SSE 9.2 mph - N/A   Mostly Cloudy
9:55 PM 93.2 °F 93.3 °F 60.8 °F 34% 29.98 in 0.5 mi SE 31.1 mph 44.9 mph N/A   Haze
10:15 PM 89.6 °F 90.1 °F 62.6 °F 40% 29.99 in 2.5 mi SE 28.8 mph 36.8 mph N/A   Haze
10:35 PM 89.6 °F 90.1 °F 62.6 °F 40% 30.01 in 4.0 mi SE 26.5 mph 36.8 mph N/A   Haze
10:55 PM 78.8 °F - 68.0 °F 69% 30.04 in 1.8 mi SE 27.6 mph 40.3 mph 0.12 in   Haze
11:15 PM 78.8 °F - 68.0 °F 69% 30.05 in 5.0 mi SSE 20.7 mph 34.5 mph N/A   Haze
11:35 PM 80.6 °F 83.2 °F 68.0 °F 65% 30.06 in 7.0 mi ESE 13.8 mph - N/A   Overcast
11:55 PM 80.6 °F 83.9 °F 69.8 °F 70% 30.05 in 9.0 mi NE 12.7 mph - 0.12 in   Mostly Cloudy